Probability
0 0 0 0 0 0 0 0 0 0 0 0 0 0 0 0 0 0 0 0 0 0 0 0 0 0 0 0 0 0 0 0 0 0 0 0 0 0 0 0 0 0 0 0
0 0 0 0 0 0 0 0 0 0 0 0 0 0 0 0 0 0 0 0 0 0 0 0 0 0 0 0 0 0 0 0 0 0 0 0 0 0 0 0 0 0 0 0
0 0 0 0 0 0 0 0 0 0 0 0 0 0 0 0 0 0 0 0 0 0 0 0 0 0 0 0 0 0 0 0 0 0 0 0 0 0 0 0 0 0 0 0
0 0 0 0 0 0 0 0 0 0 0 0 0 0 0 0 0 0 0 0 0 0 0 0 0 0 0 0 0 0 0 0 0 0 0 0 0 0 0 0 0 0 0 0
0 0 0 0 0 0 0 0 0 0 0 0 0 0 0 0 0 0 0 0 0 0 0 0 0 0 0 0 0 0 0 0 0 0 0 0 0 0 0 0 0 0 0 0
0 0 0 0 0 0 0 0 0 0 0 0 0 0 0 0 0 0 0 0 0 0 0 0 0 0 0 0 0 0 0 0 0 0 0 0 0 0 0 0 0 0 0 0
0 0 0 0 0 0 0 0 0 0 0 0 0 0 0 0 0 0 0 0 0 0 0 0 0 0 0 0 0 0 0 0 0 0 0 0 0 0 0 0 0 0 0 0
0 0 0 0 0 0 0 0 0 0 0 0 0 0 0 0 0 0 0 0 0 0 0 0 0 0 0 0 0 0 0 0 0 0 0 0 0 0 0 0 0 0 0 0
0 0 0 0 0 0 0 0 0 0 0 0 0 0 0 0 0 0 0 0 0 0 0 0 0 0 0 0 0 0 0 0 0 0 0 0 0 0 0 0 0 0 0 0
0 0 0 0 0 0 0 0 0 0 0 0 0 0 0 0 0 0 0 0 0 0 0 0 0 0 0 0 0 0 0 0 0 0 0 0 0 0 0 0 0 0 0 0
0 0 0 0 0 0 0 0 0 0 0 0 0 0 0 0 0 0 0 0 0 0 0 0 0 0 0 0 0 0 0 0 0 0 0 0 0 0 0 0 0 0 0 0
0 0 0 0 0 0 0 0 0 0 0 0 0 0 0 0 0 0 0 0 0 0 0 0 0 0 0 0 0 0 0 0 0 0 0 0 0 0 0 0 0 0 0 0
0 0 0 0 0 0 0 0 0 0 0 0 0 0 0 0 0 0 0 0 0 0 0 0 0 0 0 0 0 0 0 0 0 0 0 0 0 0 0 0 0 0 0 0
0 0 0 0 0 0 0 0 0 0 0 0 0 0 0 0 0 0 0 0 0 0 0 0 0 0 0 0 0 0 0 0 0 0 0 0 0 0 0 0 0 0 0 0
0 0 0 0 0 0 0 0 0 0 0 0 0 0 0 0 0 0 0 0 0 0 0 0 0 0 0 0 0 0 0 0 0 0 0 0 0 0 0 0 0 0 0 0
0 0 0 0 0 0 0 0 0 0 0 0 0 0 0 0 0 0 0 0 0 0 0 0 0 0 0 0 0 0 0 0 0 0 0 0 0 0 0 0 0 0 0 0
0 0 0 0 0 0 0 0 0 0 0 0 0 0 0 0 0 0 0 0 0 0 0 0 0 0 0 0 0 0 0 0 0 0 0 0 0 0 0 0 0 0 0 0
0 0 0 0 0 0 0 0 0 0 0 0 0 0 0 0 0 0 0 0 0 0 0 0 0 0 0 0 0 0 0 0 0 0 0 0 0 0 0 0 0 0 0 0
0 0 0 0 0 0 0 0 0 0 0 0 0 0 0 0 0 0 0 0 0 0 0 0 0 0 0 0 0 0 0 0 0 0 0 0 0 0 0 0 0 0 0 0
0 0 0 0 0 0 0 0 0 0 0 0 0 0 0 0 0 0 0 0 0 0 0 0 0 0 0 0 0 0 0 0 0 0 0 0 0 0 0 0 0 0 0 0
0 0 0 0 0 0 0 0 0 0 0 0 0 0 0 0 0 0 0 0 0 0 0 0 0 0 0 0 0 0 0 0 0 0 0 0 0 0 0 0 0 0 0 0
0 0 0 0 0 0 0 0 0 0 0 0 0 0 0 0 0 0 0 0 0 0 0 0 0 0 0 0 0 0 0 0 0 0 0 0 0 0 0 0 0 0 0 0
0 0 0 0 0 0 0 0 0 0 0 0 0 0 0 0 0 0 0 0 0 0 0 0 0 0 0 0 0 0 0 0 0 0 0 0 0 0 0 0 0 0 0 0
0 0 0 0 0 0 0 0 0 0 0 0 0 0 0 0 0 0 0 0 0 0 0 0 0 0 0 0 0 0 0 0 0 0 0 0 0 0 0 0 0 0 0 0
0 0 0 0 0 0 0 0 0 0 0 0 0 0 0 0 0 0 0 0 0 0 0 0 0 0 0 0 0 0 0 0 0 0 0 0 0 0 0 0 0 0 0 0
0 0 0 0 0 0 0 0 0 0 0 0 0 0 0 0 0 0 0 0 0 0 0 0 0 0 0 0 0 0 0 0 0 0 0 0 0 0 0 0 0 0 0 0
Wind_Speed
2 3 7 8 8 5 1 4 6 5 6 7 12 18 13 11 12 12 11 11 12 12 11 7 5 5 5 5 6 7 9 11 11 10 9 8 7 7 6 6 9 10 9 8
2 8 8 5 4 5 6 10 11 9 6 8 13 23 17 14 15 16 16 15 14 11 8 6 6 5 6 6 7 8 10 10 10 8 6 6 7 7 6 6 8 9 9 7
9 3 4 7 6 7 9 10 9 8 7 7 12 20 15 12 17 19 18 17 15 14 12 9 8 7 6 7 8 9 10 10 10 11 11 11 8 6 5 6 6 7 8 8
7 6 4 4 7 9 9 7 9 9 7 7 5 13 8 8 12 16 16 15 15 14 13 10 9 8 8 7 7 9 10 11 12 13 14 16 11 8 6 5 6 8 7 7
7 5 7 10 9 9 7 4 6 7 8 11 8 12 15 6 12 13 13 14 15 15 14 13 12 11 8 8 8 9 11 11 11 10 13 13 11 9 9 8 10 8 6 7
8 5 6 7 6 8 4 2 6 6 6 14 12 12 18 9 13 11 12 14 15 15 14 12 10 10 8 8 9 10 12 11 9 10 11 14 17 16 14 10 9 6 5 5
8 9 7 4 3 4 6 4 3 4 8 11 7 12 19 13 11 13 15 15 14 13 12 13 15 14 14 13 12 11 13 12 10 11 11 13 16 15 14 11 9 7 5 4
5 7 8 9 10 7 9 10 8 7 7 6 5 15 16 14 12 13 15 13 11 11 12 15 18 17 16 16 14 14 14 13 11 12 12 11 12 9 8 8 8 7 5 5
6 6 4 7 7 8 7 10 8 7 7 10 11 11 13 10 12 14 15 13 12 12 13 15 16 16 17 16 15 15 15 14 12 13 13 11 10 10 10 9 8 7 6 5
6 6 5 3 5 8 7 4 5 8 7 10 11 12 13 12 14 14 13 13 10 11 12 14 15 15 14 13 13 13 14 15 14 13 12 11 10 11 10 9 9 7 6 5
7 6 4 3 10 11 11 9 9 7 7 6 10 11 4 9 12 12 12 9 11 14 15 15 14 13 14 14 14 14 14 15 13 12 12 12 11 10 10 9 8 7 6 5
8 5 6 10 9 9 11 12 11 9 9 7 9 16 2 7 10 8 5 7 11 14 14 14 15 15 15 15 14 14 14 14 12 12 12 12 11 10 10 9 7 7 6 5
10 6 4 6 3 5 8 12 15 12 9 10 12 17 3 7 9 4 3 8 12 15 15 14 14 14 14 14 14 13 13 13 12 12 13 12 10 10 9 8 7 6 6 5
10 7 8 8 5 4 8 11 14 14 11 12 16 22 22 14 7 2 5 9 12 14 15 15 14 13 13 13 13 13 12 12 12 12 12 11 9 9 8 7 7 6 5 5
7 7 10 15 16 15 17 19 18 20 18 14 15 19 22 13 5 3 6 11 14 14 14 14 14 13 13 13 12 12 12 11 12 12 11 10 9 8 8 7 6 5 5 4
7 6 6 13 15 17 21 20 19 19 18 18 19 22 15 5 3 5 8 12 14 14 14 14 14 14 14 14 14 13 12 11 11 12 11 10 9 8 7 7 6 5 4 3
6 5 5 9 9 11 12 12 13 12 12 12 15 14 6 3 6 10 11 12 13 14 14 15 15 14 14 13 14 14 12 11 11 11 10 9 9 8 7 6 5 4 3 2
6 4 4 6 7 7 6 4 6 9 10 11 11 9 5 4 3 5 7 10 11 12 13 13 13 12 12 11 13 13 12 12 11 11 9 8 8 8 6 6 5 3 2 2
9 6 4 4 5 9 8 2 3 4 5 8 10 8 2 2 3 1 4 7 8 9 11 11 12 13 14 14 14 15 12 11 11 10 9 8 8 8 6 5 4 2 2 2
7 6 4 3 4 5 6 3 1 1 4 3 5 6 3 2 1 1 5 8 10 11 12 13 14 15 15 14 14 15 13 12 11 10 9 8 7 7 6 5 3 2 1 2
6 6 7 6 5 8 8 6 0 1 3 3 2 3 4 3 0 2 6 8 11 13 14 15 15 14 13 14 15 15 13 11 10 10 10 8 7 7 6 4 2 2 2 3
8 7 6 5 5 9 4 2 1 3 3 2 2 1 3 4 5 7 8 10 13 14 14 14 14 12 11 12 15 14 12 11 11 11 10 8 6 5 5 4 3 2 3 3
7 8 6 8 9 5 2 3 3 2 3 2 1 2 7 7 6 8 9 10 11 13 12 12 15 14 10 9 12 15 12 12 12 11 9 7 6 5 4 3 3 2 2 3
4 3 3 5 8 6 5 3 1 2 2 2 4 5 6 9 10 11 11 11 11 12 12 13 15 15 11 9 11 13 12 11 12 10 8 6 5 4 3 2 2 2 2 3
6 5 4 6 7 5 4 1 2 4 6 7 8 8 10 13 12 12 11 11 11 11 10 11 13 14 13 12 12 11 11 11 11 8 6 5 4 3 2 2 1 2 3 4
6 8 7 7 6 4 2 2 5 6 6 7 11 11 9 10 13 13 11 10 11 11 11 12 13 14 12 12 11 9 8 10 10 7 5 4 3 2 2 2 3 5 6 10
Wind_Direction
143 178 211 210 210 223 244 256 266 268 304 307 276 277 271 266 267 263 258 253 250 249 252 248 229 203 181 171 161 154 146 147 145 142 136 127 117 109 97 92 98 97 97 94
170 236 230 208 203 229 248 266 273 280 265 271 279 279 272 249 251 250 249 250 248 248 249 232 207 188 184 174 162 151 150 151 149 142 127 116 116 105 96 93 90 94 98 97
204 242 202 190 202 222 237 243 255 265 302 274 286 284 259 235 231 239 239 239 238 234 234 224 201 194 183 178 169 156 149 143 135 129 119 114 105 103 101 98 89 87 93 93
235 246 252 211 214 210 251 227 236 253 264 271 236 286 274 226 239 240 239 232 231 229 222 212 193 188 185 178 159 145 141 139 139 139 141 142 140 134 125 121 111 97 92 93
225 216 213 225 222 193 225 224 228 238 246 263 232 264 278 209 244 244 238 232 228 223 214 204 191 183 170 155 148 141 136 137 141 142 145 135 124 118 121 117 109 100 88 83
238 213 206 217 221 201 209 287 277 246 244 260 225 223 270 229 229 237 235 229 225 218 209 195 171 152 145 141 139 140 138 136 137 138 139 136 133 134 132 127 119 108 96 81
244 230 216 183 188 182 177 203 266 251 228 249 185 211 249 244 220 225 234 234 225 212 192 172 160 158 155 152 149 145 142 137 134 132 130 135 135 136 135 132 127 120 106 91
249 262 209 194 200 191 188 189 209 228 239 271 224 234 251 249 233 231 235 235 223 202 184 174 169 163 160 156 152 148 143 137 133 129 125 124 124 121 121 120 119 113 109 107
221 262 244 203 188 175 187 209 217 254 264 268 253 259 277 255 247 240 238 232 217 193 179 172 165 161 157 155 153 149 142 135 130 127 123 118 116 117 116 111 105 104 106 106
194 258 265 218 166 207 209 186 186 220 251 258 262 256 260 278 263 247 235 225 205 178 167 162 159 154 150 145 139 136 137 133 128 126 125 120 114 114 115 111 107 104 99 97
184 231 273 209 203 202 197 211 217 228 235 256 280 268 240 288 285 263 243 213 179 167 162 156 149 141 135 133 134 133 131 128 126 122 119 118 114 112 109 106 106 106 102 99
189 224 253 237 225 206 205 212 211 233 242 240 268 275 259 302 302 280 238 178 160 153 147 142 139 136 135 135 134 132 132 128 125 122 119 116 115 111 108 106 106 106 102 96
168 208 266 297 247 200 227 226 224 234 250 249 256 271 284 339 340 339 134 138 139 137 133 132 134 137 137 135 133 131 129 126 123 121 119 117 115 112 111 111 109 106 103 95
175 206 218 236 247 216 237 237 230 232 243 251 248 269 289 304 308 328 127 133 134 136 137 137 136 134 133 132 132 129 125 125 124 121 120 119 118 117 116 114 109 105 103 95
198 234 239 254 265 268 264 259 245 235 237 250 265 274 285 295 264 183 148 139 138 140 142 144 141 137 133 130 128 127 125 125 125 122 120 120 118 115 113 110 106 101 94 88
195 247 261 267 263 265 267 262 251 243 239 245 264 275 277 278 158 149 155 153 153 153 151 148 143 141 141 139 136 131 128 127 124 122 122 123 120 116 113 111 107 99 88 73
196 222 263 276 285 284 267 252 236 229 223 226 245 258 272 258 191 176 171 169 167 161 157 155 153 150 146 143 140 136 132 127 122 122 125 125 122 116 114 111 102 92 82 55
201 208 252 284 304 272 265 275 221 225 233 221 242 264 276 248 194 174 173 170 165 160 156 152 146 139 133 130 129 125 126 125 124 125 127 126 122 117 112 104 95 85 74 37
197 198 245 272 287 285 294 288 189 206 255 230 237 254 260 140 94 111 165 158 155 151 146 142 138 136 134 135 134 129 126 126 127 130 131 128 124 120 113 103 92 81 52 7
184 190 226 270 290 282 287 293 249 180 296 258 229 240 203 179 72 234 154 137 134 131 132 132 131 132 134 137 137 132 134 134 136 135 128 121 118 116 112 106 96 73 35 343
163 190 217 239 263 273 272 285 173 148 277 310 246 235 189 198 152 88 111 115 125 127 128 130 132 136 139 141 138 134 135 136 131 124 117 112 110 112 110 101 87 58 20 356
173 181 195 191 226 259 295 355 153 257 293 314 290 235 152 107 75 80 94 110 119 122 125 128 127 127 131 138 135 131 129 125 122 118 113 110 106 102 101 93 73 45 20 354
199 192 187 199 221 248 279 268 285 283 291 318 330 104 124 110 95 93 95 103 110 117 118 120 122 120 118 125 131 128 127 126 120 114 112 110 102 91 89 85 58 24 6 343
242 195 196 252 262 262 263 261 303 11 25 39 83 102 111 114 113 107 104 103 105 109 114 120 120 119 113 107 111 120 124 121 118 116 114 111 104 90 68 61 51 14 335 318
218 177 202 255 272 290 284 214 120 88 83 81 75 83 108 116 113 112 109 107 108 109 111 116 119 116 111 108 108 113 118 118 114 112 111 105 96 90 63 31 349 318 270 279
194 180 183 223 233 211 249 121 123 114 104 105 104 93 86 107 114 110 105 105 108 109 108 107 108 110 109 108 106 106 111 116 117 113 108 101 94 78 55 8 333 322 319 323